CSN123 ZBAA-ZSQD

Flight info

Callsign CSN123
Flight time 1h 8m
Altitude 22600
Route IGMOR9Z IGMOR W36 LOTGO W575 GOTSU W201 HCH/K0835S0660 W651 NOKUD
Aircraft A359/H-SDE2E3GHIJ3J4J5LM1ORWXY/LB1D1

Departure

Time 2026-05-04 14:05
Airport Beijing Capital International Airport (ZBAA)

Arrival

Time 2026-05-04 15:14
Airport Qingdao Jiaodong International Airport (ZSQD)
Time Latitude Longitude Altitude Speed Heading
2026-05-04 13:33 40.08468 116.57833 116 ft 0 kts 353°
2026-05-04 13:55 40.08431 116.57837 113 ft 3 kts 324°
2026-05-04 13:55 40.08415 116.57855 120 ft 4 kts 302°
2026-05-04 13:56 40.08407 116.57881 112 ft 4 kts 268°
2026-05-04 13:56 40.08408 116.57910 114 ft 1 kts 271°
2026-05-04 14:00 40.08420 116.57817 115 ft 9 kts 288°
2026-05-04 14:00 40.08439 116.57731 113 ft 11 kts 281°
2026-05-04 14:01 40.08427 116.57647 115 ft 8 kts 266°
2026-05-04 14:01 40.08423 116.57562 114 ft 11 kts 265°
2026-05-04 14:01 40.08299 116.57487 115 ft 12 kts 173°
2026-05-04 14:02 40.08208 116.57501 115 ft 14 kts 173°
2026-05-04 14:02 40.08101 116.57518 115 ft 17 kts 173°
2026-05-04 14:02 40.07977 116.57537 113 ft 19 kts 173°
2026-05-04 14:02 40.07839 116.57559 114 ft 21 kts 173°
2026-05-04 14:03 40.07688 116.57584 114 ft 23 kts 173°
2026-05-04 14:03 40.07525 116.57608 114 ft 25 kts 173°
2026-05-04 14:03 40.07384 116.57608 114 ft 16 kts 205°
2026-05-04 14:03 40.07353 116.57519 112 ft 9 kts 272°
2026-05-04 14:04 40.07417 116.57408 113 ft 7 kts 347°
2026-05-04 14:04 40.07473 116.57394 114 ft 11 kts 349°
2026-05-04 14:04 40.07777 116.57347 115 ft 82 kts 353°
2026-05-04 14:05 40.09717 116.57066 512 ft 171 kts 354°
2026-05-04 14:05 40.10907 116.56846 1215 ft 178 kts 342°
2026-05-04 14:05 40.12000 116.55952 1518 ft 198 kts 309°
2026-05-04 14:06 40.13069 116.54609 1827 ft 230 kts 311°
2026-05-04 14:06 40.14354 116.53145 2258 ft 257 kts 315°
2026-05-04 14:06 40.15778 116.51673 3091 ft 263 kts 316°
2026-05-04 14:06 40.17166 116.50124 4002 ft 263 kts 313°
2026-05-04 14:07 40.18538 116.48511 4881 ft 267 kts 313°
2026-05-04 14:07 40.19930 116.46876 5775 ft 269 kts 314°
2026-05-04 14:07 40.21317 116.45213 6693 ft 270 kts 311°
2026-05-04 14:07 40.22349 116.43213 7644 ft 265 kts 288°
2026-05-04 14:08 40.22649 116.40869 8676 ft 262 kts 270°
2026-05-04 14:08 40.22645 116.38466 9640 ft 265 kts 269°
2026-05-04 14:08 40.22625 116.36025 10418 ft 275 kts 270°
2026-05-04 14:08 40.22620 116.33455 10788 ft 298 kts 271°
2026-05-04 14:09 40.22622 116.27640 11578 ft 337 kts 271°
2026-05-04 14:09 40.22621 116.24529 12252 ft 346 kts 271°
2026-05-04 14:10 40.22621 116.18108 13735 ft 359 kts 271°
2026-05-04 14:10 40.22622 116.14819 14445 ft 364 kts 271°
2026-05-04 14:10 40.22621 116.11487 15189 ft 368 kts 271°
2026-05-04 14:10 40.22475 116.08114 15918 ft 375 kts 262°
2026-05-04 14:11 40.21661 116.04856 16633 ft 382 kts 244°
2026-05-04 14:11 40.17825 116.00005 18123 ft 397 kts 210°
2026-05-04 14:11 40.15354 115.98349 18784 ft 401 kts 208°
2026-05-04 14:12 40.12849 115.96696 19446 ft 405 kts 208°
2026-05-04 14:12 40.10327 115.95008 20145 ft 409 kts 209°
2026-05-04 14:12 40.05236 115.91587 21533 ft 418 kts 208°
2026-05-04 14:13 40.02512 115.90166 22138 ft 426 kts 198°
2026-05-04 14:13 39.99576 115.89558 22419 ft 432 kts 183°
2026-05-04 14:13 39.96523 115.89933 22456 ft 453 kts 168°
2026-05-04 14:13 39.93472 115.91221 22452 ft 465 kts 160°
2026-05-04 14:14 39.90452 115.92752 22456 ft 465 kts 160°
2026-05-04 14:14 39.84420 115.95763 22459 ft 464 kts 160°
2026-05-04 14:14 39.81496 115.97552 22456 ft 465 kts 148°
2026-05-04 14:15 39.76650 116.03096 22456 ft 464 kts 135°
2026-05-04 14:15 39.72014 116.08956 22461 ft 464 kts 136°
2026-05-04 14:16 39.67357 116.14768 22468 ft 464 kts 136°
2026-05-04 14:16 39.65057 116.17628 22472 ft 464 kts 136°
2026-05-04 14:17 39.60396 116.23406 22476 ft 463 kts 136°
2026-05-04 14:17 39.58066 116.26289 22481 ft 463 kts 136°
2026-05-04 14:17 39.53399 116.32056 22482 ft 463 kts 136°
2026-05-04 14:18 39.51065 116.34936 22484 ft 463 kts 136°
2026-05-04 14:18 39.46382 116.40690 22483 ft 463 kts 137°
2026-05-04 14:19 39.41345 116.45885 22481 ft 463 kts 142°
2026-05-04 14:19 39.38795 116.48450 22488 ft 463 kts 142°
2026-05-04 14:19 39.36270 116.51019 22484 ft 463 kts 142°
2026-05-04 14:19 39.33744 116.53605 22479 ft 463 kts 141°
2026-05-04 14:20 39.31228 116.56188 22476 ft 463 kts 141°
2026-05-04 14:20 39.28744 116.58741 22474 ft 463 kts 141°
2026-05-04 14:20 39.26225 116.61331 22475 ft 463 kts 141°
2026-05-04 14:21 39.21192 116.66502 22478 ft 463 kts 141°
2026-05-04 14:21 39.18673 116.69093 22471 ft 463 kts 141°
2026-05-04 14:21 39.16328 116.71932 22474 ft 463 kts 130°
2026-05-04 14:21 39.14580 116.75385 22482 ft 461 kts 114°
2026-05-04 14:22 39.13598 116.79294 22475 ft 459 kts 99°
2026-05-04 14:22 39.13274 116.83373 22474 ft 457 kts 92°
2026-05-04 14:22 39.13109 116.87450 22475 ft 457 kts 91°
2026-05-04 14:22 39.12937 116.91547 22477 ft 458 kts 92°
2026-05-04 14:23 39.12565 116.99733 22490 ft 457 kts 92°
2026-05-04 14:23 39.12371 117.03821 22493 ft 457 kts 92°
2026-05-04 14:23 39.12173 117.07911 22498 ft 457 kts 92°
2026-05-04 14:24 39.11974 117.11994 22506 ft 457 kts 92°
2026-05-04 14:24 39.11773 117.16088 22504 ft 457 kts 92°
2026-05-04 14:24 39.11570 117.20170 22507 ft 457 kts 92°
2026-05-04 14:24 39.11366 117.24247 22511 ft 457 kts 92°
2026-05-04 14:25 39.11160 117.28322 22514 ft 456 kts 92°
2026-05-04 14:25 39.10747 117.36428 22641 ft 456 kts 92°
2026-05-04 14:25 39.10538 117.40481 23477 ft 450 kts 92°
2026-05-04 14:26 39.10210 117.44501 24455 ft 445 kts 99°
2026-05-04 14:26 39.09245 117.48289 25178 ft 449 kts 115°
2026-05-04 14:26 39.07687 117.51786 25771 ft 453 kts 121°
2026-05-04 14:26 39.06033 117.55193 26325 ft 457 kts 120°
2026-05-04 14:27 39.04330 117.58724 26884 ft 461 kts 120°
2026-05-04 14:27 39.02660 117.62211 27429 ft 464 kts 120°
2026-05-04 14:27 39.00965 117.65762 27968 ft 468 kts 120°
2026-05-04 14:27 38.99253 117.69355 28492 ft 472 kts 120°
2026-05-04 14:28 38.97525 117.72980 29012 ft 476 kts 120°
2026-05-04 14:28 38.95786 117.76629 29419 ft 483 kts 120°
2026-05-04 14:28 38.94025 117.80318 29951 ft 485 kts 120°
2026-05-04 14:28 38.92255 117.84024 30406 ft 488 kts 120°
2026-05-04 14:29 38.88679 117.91497 31195 ft 495 kts 120°
2026-05-04 14:29 38.85060 117.99072 31916 ft 501 kts 119°
2026-05-04 14:30 38.83475 118.03060 32260 ft 502 kts 110°
2026-05-04 14:30 38.82395 118.07302 32580 ft 502 kts 102°
2026-05-04 14:30 38.80892 118.16062 33403 ft 502 kts 98°
2026-05-04 14:31 38.80239 118.20457 33873 ft 502 kts 98°
2026-05-04 14:31 38.78932 118.29198 34583 ft 502 kts 99°
2026-05-04 14:32 38.77555 118.38008 34911 ft 505 kts 99°
2026-05-04 14:32 38.76143 118.46819 34917 ft 505 kts 99°
2026-05-04 14:33 38.74710 118.55625 34921 ft 505 kts 99°
2026-05-04 14:33 38.73274 118.64422 34922 ft 505 kts 100°
2026-05-04 14:34 38.71835 118.73225 34923 ft 505 kts 100°
2026-05-04 14:34 38.70391 118.82016 34925 ft 505 kts 100°
2026-05-04 14:35 38.68937 118.90831 34927 ft 505 kts 100°
2026-05-04 14:35 38.67479 118.99621 34928 ft 505 kts 100°
2026-05-04 14:36 38.66013 119.08413 34928 ft 505 kts 100°
2026-05-04 14:36 38.64541 119.17199 34932 ft 505 kts 100°
2026-05-04 14:37 38.63072 119.25930 34934 ft 505 kts 100°
2026-05-04 14:37 38.61587 119.34705 34936 ft 505 kts 100°
2026-05-04 14:38 38.60095 119.43486 34940 ft 505 kts 100°
2026-05-04 14:38 38.58626 119.52278 34938 ft 505 kts 98°
2026-05-04 14:39 38.58065 119.61178 34943 ft 502 kts 90°
2026-05-04 14:39 38.57835 119.70041 34949 ft 502 kts 89°
2026-05-04 14:40 38.57537 119.83430 34952 ft 502 kts 89°
2026-05-04 14:40 38.57313 119.92355 34949 ft 502 kts 89°
2026-05-04 14:41 38.56298 120.01189 34955 ft 504 kts 101°
2026-05-04 14:42 38.52744 120.18553 34958 ft 506 kts 108°
2026-05-04 14:42 38.49445 120.26487 34964 ft 509 kts 127°
2026-05-04 14:43 38.44302 120.32570 34966 ft 510 kts 148°
2026-05-04 14:43 38.41160 120.34654 34968 ft 510 kts 159°
2026-05-04 14:43 38.37732 120.36005 34969 ft 508 kts 169°
2026-05-04 14:44 38.34279 120.36553 34972 ft 506 kts 180°
2026-05-04 14:44 38.30772 120.36365 34974 ft 504 kts 187°
2026-05-04 14:44 38.23760 120.36034 34973 ft 508 kts 173°
2026-05-04 14:45 38.20288 120.36821 34832 ft 506 kts 169°
2026-05-04 14:45 38.16844 120.37808 34596 ft 507 kts 167°
2026-05-04 14:45 38.13459 120.38887 34315 ft 498 kts 166°
2026-05-04 14:45 38.10096 120.40005 33444 ft 500 kts 166°
2026-05-04 14:46 38.06717 120.41141 32531 ft 503 kts 165°
2026-05-04 14:46 38.03322 120.42276 31655 ft 504 kts 165°
2026-05-04 14:46 37.99920 120.43400 30755 ft 506 kts 165°
2026-05-04 14:46 37.97655 120.44141 30157 ft 507 kts 165°
2026-05-04 14:47 37.93113 120.45615 28898 ft 507 kts 165°
2026-05-04 14:47 37.89712 120.46714 28259 ft 501 kts 165°
2026-05-04 14:47 37.86352 120.47797 27617 ft 495 kts 165°
2026-05-04 14:47 37.84104 120.48521 27173 ft 492 kts 165°
2026-05-04 14:48 37.80793 120.49585 26514 ft 488 kts 165°
2026-05-04 14:48 37.77521 120.50637 25865 ft 483 kts 165°
2026-05-04 14:48 37.74277 120.51678 25226 ft 479 kts 165°
2026-05-04 14:48 37.71062 120.52709 24581 ft 475 kts 165°
2026-05-04 14:49 37.67893 120.53617 23954 ft 472 kts 170°
2026-05-04 14:49 37.64630 120.53758 23258 ft 469 kts 185°
2026-05-04 14:49 37.61422 120.53054 22576 ft 464 kts 192°
2026-05-04 14:49 37.58317 120.52032 21939 ft 458 kts 196°
2026-05-04 14:50 37.55282 120.50864 21330 ft 452 kts 197°
2026-05-04 14:50 37.52278 120.49649 20476 ft 452 kts 197°
2026-05-04 14:50 37.49331 120.48453 19563 ft 439 kts 197°
2026-05-04 14:50 37.46430 120.47294 18692 ft 436 kts 197°
2026-05-04 14:51 37.43543 120.46165 17761 ft 432 kts 197°
2026-05-04 14:51 37.40682 120.45069 16796 ft 427 kts 197°
2026-05-04 14:51 37.37853 120.43999 15861 ft 422 kts 197°
2026-05-04 14:51 37.35059 120.42948 14962 ft 417 kts 197°
2026-05-04 14:52 37.32294 120.41907 14086 ft 412 kts 197°
2026-05-04 14:52 37.29562 120.40877 13204 ft 407 kts 197°
2026-05-04 14:52 37.26891 120.39868 12914 ft 408 kts 197°
2026-05-04 14:52 37.24180 120.38846 12592 ft 404 kts 197°
2026-05-04 14:53 37.21501 120.37837 11945 ft 401 kts 197°
2026-05-04 14:53 37.18832 120.36832 11024 ft 402 kts 197°
2026-05-04 14:53 37.16160 120.35826 10271 ft 399 kts 197°
2026-05-04 14:53 37.13528 120.34837 9473 ft 385 kts 198°
2026-05-04 14:54 37.11040 120.33911 8465 ft 362 kts 198°
2026-05-04 14:54 37.08697 120.33039 7468 ft 343 kts 199°
2026-05-04 14:54 37.06461 120.32205 6488 ft 328 kts 199°
2026-05-04 14:54 37.04321 120.31403 5637 ft 311 kts 199°
2026-05-04 14:55 37.02315 120.30647 5468 ft 293 kts 199°
2026-05-04 14:55 37.00414 120.29933 5350 ft 277 kts 199°
2026-05-04 14:55 36.98622 120.29263 5246 ft 262 kts 199°
2026-05-04 14:55 36.96922 120.28622 5130 ft 249 kts 199°
2026-05-04 14:56 36.95303 120.28009 5009 ft 237 kts 200°
2026-05-04 14:56 36.93842 120.27195 4899 ft 224 kts 212°
2026-05-04 14:56 36.92549 120.26190 4774 ft 214 kts 214°
2026-05-04 14:56 36.91332 120.25196 4647 ft 204 kts 214°
2026-05-04 14:57 36.90176 120.24245 4551 ft 195 kts 215°
2026-05-04 14:57 36.89074 120.23333 4434 ft 186 kts 215°
2026-05-04 14:57 36.88019 120.22453 4321 ft 181 kts 215°
2026-05-04 14:57 36.86967 120.21573 4066 ft 182 kts 215°
2026-05-04 14:58 36.85943 120.20717 3927 ft 175 kts 215°
2026-05-04 14:58 36.84976 120.19908 3873 ft 161 kts 215°
2026-05-04 14:58 36.84057 120.19140 3660 ft 158 kts 215°
2026-05-04 14:58 36.83150 120.18381 3413 ft 156 kts 214°
2026-05-04 14:59 36.82254 120.17632 3155 ft 154 kts 214°
2026-05-04 14:59 36.81372 120.16893 3011 ft 152 kts 214°
2026-05-04 14:59 36.79716 120.15509 2993 ft 136 kts 214°
2026-05-04 15:00 36.78935 120.14858 2985 ft 135 kts 214°
2026-05-04 15:00 36.78153 120.14206 2985 ft 135 kts 214°
2026-05-04 15:00 36.77370 120.13553 2977 ft 136 kts 214°
2026-05-04 15:01 36.75804 120.12247 2981 ft 135 kts 214°
2026-05-04 15:01 36.75020 120.11595 2978 ft 136 kts 214°
2026-05-04 15:01 36.74235 120.10942 2987 ft 136 kts 214°
2026-05-04 15:01 36.73450 120.10286 2978 ft 135 kts 214°
2026-05-04 15:02 36.72668 120.09635 2980 ft 134 kts 214°
2026-05-04 15:02 36.71924 120.09016 2983 ft 123 kts 214°
2026-05-04 15:02 36.71220 120.08431 2983 ft 121 kts 215°
2026-05-04 15:02 36.70529 120.07856 2982 ft 121 kts 215°
2026-05-04 15:03 36.69825 120.07268 2985 ft 122 kts 215°
2026-05-04 15:03 36.69119 120.06680 2987 ft 122 kts 214°
2026-05-04 15:03 36.68413 120.06092 2979 ft 122 kts 214°
2026-05-04 15:03 36.67708 120.05506 2981 ft 122 kts 214°
2026-05-04 15:04 36.67004 120.04921 2980 ft 121 kts 214°
2026-05-04 15:04 36.66301 120.04337 2978 ft 122 kts 215°
2026-05-04 15:04 36.65596 120.03752 2988 ft 122 kts 215°
2026-05-04 15:04 36.64887 120.03163 2984 ft 122 kts 215°
2026-05-04 15:05 36.64179 120.02575 2982 ft 122 kts 215°
2026-05-04 15:05 36.63470 120.01986 2984 ft 122 kts 215°
2026-05-04 15:05 36.62760 120.01396 2990 ft 122 kts 215°
2026-05-04 15:05 36.62053 120.00809 2984 ft 122 kts 215°
2026-05-04 15:06 36.61343 120.00219 2989 ft 122 kts 215°
2026-05-04 15:06 36.60631 119.99664 2985 ft 123 kts 211°
2026-05-04 15:06 36.59844 119.99249 2986 ft 124 kts 201°
2026-05-04 15:07 36.58104 119.99138 2990 ft 128 kts 179°
2026-05-04 15:07 36.57225 119.99338 2989 ft 129 kts 174°
2026-05-04 15:07 36.56352 119.99616 2990 ft 129 kts 172°
2026-05-04 15:07 36.55488 119.99929 2995 ft 129 kts 171°
2026-05-04 15:08 36.54632 120.00266 2994 ft 129 kts 169°
2026-05-04 15:08 36.53778 120.00606 2989 ft 128 kts 170°
2026-05-04 15:08 36.52925 120.00940 2988 ft 129 kts 170°
2026-05-04 15:08 36.52069 120.01272 2985 ft 129 kts 170°
2026-05-04 15:09 36.51208 120.01606 2947 ft 131 kts 170°
2026-05-04 15:09 36.50344 120.01944 2785 ft 129 kts 170°
2026-05-04 15:09 36.49503 120.02278 2612 ft 128 kts 170°
2026-05-04 15:10 36.47814 120.02944 2274 ft 125 kts 169°
2026-05-04 15:10 36.47003 120.03266 2112 ft 123 kts 168°
2026-05-04 15:10 36.45383 120.03905 1783 ft 121 kts 168°
2026-05-04 15:11 36.44585 120.04221 1621 ft 120 kts 168°
2026-05-04 15:11 36.43788 120.04535 1461 ft 120 kts 167°
2026-05-04 15:11 36.42996 120.04847 1304 ft 119 kts 167°
2026-05-04 15:11 36.42205 120.05160 1127 ft 119 kts 166°
2026-05-04 15:12 36.41412 120.05472 967 ft 120 kts 164°
2026-05-04 15:12 36.40619 120.05786 805 ft 121 kts 164°
2026-05-04 15:12 36.39824 120.06101 626 ft 117 kts 164°
2026-05-04 15:12 36.39068 120.06399 487 ft 116 kts 162°
2026-05-04 15:13 36.38250 120.06723 273 ft 126 kts 162°
2026-05-04 15:13 36.37421 120.07050 116 ft 124 kts 163°
2026-05-04 15:13 36.36608 120.07339 48 ft 120 kts 163°
2026-05-04 15:13 36.35954 120.07622 44 ft 80 kts 160°
2026-05-04 15:14 36.35557 120.07778 47 ft 40 kts 161°
2026-05-04 15:14 36.35422 120.07835 45 ft 5 kts 161°
2026-05-04 15:14 36.35396 120.07846 45 ft 4 kts 161°
2026-05-04 15:14 36.35368 120.07858 45 ft 5 kts 161°
2026-05-04 15:15 36.35334 120.07872 45 ft 6 kts 161°
2026-05-04 15:15 36.35293 120.07889 45 ft 7 kts 161°
2026-05-04 15:15 36.35260 120.07919 44 ft 6 kts 131°
2026-05-04 15:16 36.35173 120.08042 41 ft 11 kts 134°
2026-05-04 15:16 36.35133 120.08112 42 ft 7 kts 93°
2026-05-04 15:16 36.35181 120.08221 44 ft 7 kts 23°
2026-05-04 15:17 36.35228 120.08222 45 ft 7 kts 346°
2026-05-04 15:17 36.35356 120.08172 45 ft 12 kts 342°
2026-05-04 15:17 36.35442 120.08138 48 ft 14 kts 342°
2026-05-04 15:18 36.35514 120.08110 48 ft 0 kts 342°